[[{"header":{"parameterUnit":"m.s-1","parameterCategory":1,"la1":30.2991,"la2":30.254,"lo1":-89.0895,"lo2":-89.0444,"dy":0.0017,"dx":0.0017,"nx":28,"ny":28,"refTime":"2025-06-11T09:00:00:Z","depth":0,"parameterNumber":2,"parameterNumberName":"U-component_of_WINDS"},"data":[0,0,0,0,0,0,0,0,0,0,0,0,0,0,0,0,0,0,0,0,0,0,0,0,0,0,0,0,0,0,0,0,0,0,0,0,0,0,0,0,0,0,0,0,0,0,0,0,0,0,0,0,0,0,0,0,0,0,-1.6219,-1.622,0,-1.6311,-1.6312,-1.6313,-1.6331,-1.633,-1.633,-1.6329,-1.6423,-1.6426,-1.6429,0,0,0,0,0,0,0,0,0,0,0,0,0,-1.6062,-1.6065,-1.6219,-1.622,-1.6222,-1.6311,-1.6312,-1.6313,-1.6331,-1.633,-1.6329,-1.6329,-1.6422,-1.6426,-1.6429,0,0,0,0,0,0,0,0,0,0,0,0,0,-1.6139,-1.6065,-1.6219,-1.6241,-1.6244,-1.631,-1.6312,-1.6313,-1.6331,-1.633,-1.6329,-1.6328,-1.6421,-1.6425,-1.643,-1.6481,0,0,-1.6444,-1.6447,0,0,0,0,0,0,0,0,-1.6135,-1.6145,-1.6237,-1.624,-1.6243,-1.6308,-1.6291,-1.6369,-1.6332,-1.6298,-1.6329,-1.6328,-1.6386,-1.6393,-1.6413,-1.6485,-1.6489,-1.6445,-1.6448,-1.645,-1.6451,0,0,0,0,0,0,0,-1.6129,-1.6141,-1.6255,-1.6238,-1.6242,-1.6247,-1.6257,-1.6306,-1.6347,-1.6301,-1.6303,-1.6313,-1.6387,-1.6408,-1.6415,-1.649,-1.6445,-1.6449,-1.6452,-1.6454,-1.6609,-1.661,0,0,0,0,0,0,-1.612,-1.6137,-1.6253,-1.6258,-1.6185,-1.6251,-1.6262,-1.6289,-1.6346,-1.6354,-1.6314,-1.6314,-1.6401,-1.641,-1.6418,-1.6482,-1.645,-1.6454,-1.6457,-1.6608,-1.6609,-1.6611,0,0,0,0,0,0,-1.6117,-1.613,-1.6249,-1.6198,-1.6213,-1.6255,-1.6285,-1.6291,-1.6312,-1.6356,-1.6364,-1.6328,-1.64,-1.6412,-1.6465,-1.6485,-1.6456,-1.6461,-1.6606,-1.6608,-1.661,-1.6609,0,0,0,0,0,0,-1.6112,-1.6129,-1.6148,-1.6198,-1.6216,-1.6294,-1.6286,-1.6293,-1.632,-1.632,-1.6371,-1.6378,-1.64,-1.6458,-1.647,-1.6491,-1.6464,-1.6605,-1.6607,-1.661,-1.6607,-1.661,-1.6613,0,0,0,0,0,-1.6106,-1.6144,-1.6149,-1.6163,-1.6241,-1.6295,-1.6305,-1.6329,-1.6321,-1.6341,-1.637,-1.6377,-1.6481,-1.6463,-1.6477,-1.65,-1.6604,-1.6607,-1.6609,-1.6606,-1.661,-1.6613,0,0,0,0,0,0,-1.6096,-1.6151,-1.6157,-1.6212,-1.6249,-1.6298,-1.6324,-1.6333,-1.6372,-1.6371,-1.6399,-1.6411,-1.6462,-1.6487,-1.6466,-1.6552,-1.6542,-1.6548,-1.6535,-1.6539,-1.6542,-1.6535,-1.6468,0,0,0,0,0,-1.61,-1.6138,-1.6185,-1.6229,-1.6247,-1.6282,-1.6306,-1.6322,-1.6361,-1.6376,-1.6409,-1.6447,-1.6488,-1.6515,-1.6555,-1.6611,-1.6622,-1.6633,-1.6636,-1.6639,-1.6643,-1.6675,-1.668,-1.662,-1.662,-1.662,0,0,-1.6109,-1.6144,-1.6166,-1.6228,-1.6258,-1.6298,-1.6295,-1.6337,-1.6367,-1.6383,-1.6435,-1.646,-1.6504,-1.6559,-1.6585,-1.6581,-1.6662,-1.6642,-1.6644,-1.6647,-1.6678,-1.6684,-1.6689,-1.6622,-1.6622,-1.6622,0,0,-1.6145,-1.6175,-1.6216,-1.6246,-1.6291,-1.6314,-1.6324,-1.6372,-1.6389,-1.6442,-1.6455,-1.6491,-1.6562,-1.6593,-1.6618,-1.6666,-1.6674,-1.6679,-1.6694,-1.6724,-1.6729,-1.6733,-1.6751,-1.6757,-1.6683,-1.6683,-1.6683,0,-1.615,-1.6211,-1.6235,-1.6277,-1.6304,-1.632,-1.6361,-1.6389,-1.6446,-1.6464,-1.6459,-1.6548,-1.6579,-1.6641,-1.6653,-1.6672,-1.6685,-1.6673,-1.6726,-1.6731,-1.6735,-1.6752,-1.6759,-1.6683,-1.6683,-1.6683,-1.6683,0,-1.6215,-1.6257,-1.6284,-1.6338,-1.6368,-1.6409,-1.644,-1.6468,-1.6481,-1.6504,-1.6558,-1.6596,-1.6644,-1.666,-1.6673,-1.6725,-1.6721,-1.6721,-1.6711,-1.6741,-1.6757,-1.6764,-1.6684,-1.6684,-1.6683,-1.6683,0,0,-1.6248,-1.6315,-1.6324,-1.6349,-1.6401,-1.6433,-1.6475,-1.6523,-1.6546,-1.6584,-1.6621,-1.668,-1.668,-1.6709,-1.6725,-1.6752,-1.6788,-1.6749,-1.675,-1.6755,-1.6847,-1.6847,-1.6854,-1.6794,-1.6795,-1.6796,-1.6844,0,-1.6291,-1.6366,-1.639,-1.6453,-1.6492,-1.6508,-1.6545,-1.658,-1.6604,-1.664,-1.6666,-1.6708,-1.6705,-1.6722,-1.6749,-1.6778,-1.6807,-1.6775,-1.6828,-1.683,-1.6817,-1.6863,-1.6863,-1.6906,-1.685,-1.6851,-1.6852,0,-1.6351,-1.639,-1.6457,-1.6504,-1.6521,-1.6554,-1.6599,-1.6634,-1.6675,-1.669,-1.6722,-1.6736,-1.6781,-1.6769,-1.6831,-1.6809,-1.6832,-1.6849,-1.6851,-1.6857,-1.6843,-1.687,-1.6921,-1.6927,-1.6863,-1.6862,-1.6861,0,-1.6369,-1.6438,-1.6487,-1.6508,-1.6564,-1.6586,-1.661,-1.665,-1.6677,-1.6717,-1.6735,-1.6779,-1.6804,-1.6838,-1.6864,-1.6852,-1.6924,-1.6914,-1.6938,-1.6938,-1.6953,-1.6952,-1.7008,-1.6967,-1.6967,-1.6967,-1.6967,0,-1.6414,-1.6455,-1.6496,-1.6526,-1.6572,-1.6599,-1.6644,-1.6669,-1.6704,-1.674,-1.6756,-1.6789,-1.6822,-1.686,-1.688,-1.6929,-1.694,-1.6954,-1.6959,-1.6952,-1.6951,-1.6968,-1.6966,-1.6969,-1.6969,-1.6968,-1.6968,0,-1.6442,-1.6471,-1.6526,-1.6574,-1.6587,-1.6618,-1.666,-1.669,-1.6714,-1.6759,-1.6771,-1.6809,-1.6854,-1.6883,-1.6941,-1.6955,-1.7008,-1.7012,-1.6994,-1.6997,-1.7019,-1.7017,-1.7089,-1.7099,-1.7052,-1.7052,-1.7052,0,-1.6469,-1.6501,-1.6552,-1.6577,-1.6601,-1.6641,-1.6669,-1.6696,-1.6725,-1.6773,-1.6798,-1.6844,-1.6882,-1.6953,-1.6986,-1.703,-1.7036,-1.7058,-1.7043,-1.7035,-1.7037,-1.7034,-1.7038,-1.706,-1.7061,-1.7061,-1.7061,0,-1.6515,-1.6528,-1.6567,-1.6611,-1.6643,-1.668,-1.6716,-1.6735,-1.6769,-1.68,-1.6846,-1.6876,-1.6934,-1.698,-1.7027,-1.7052,-1.7063,-1.7066,-1.7074,-1.7068,-1.7056,-1.7063,-1.7001,-1.7064,-1.7064,-1.7064,-1.7064,-1.7063,-1.6544,-1.6573,-1.6613,-1.6656,-1.6686,-1.672,-1.6751,-1.6778,-1.6817,-1.6867,-1.6881,-1.6929,-1.6969,-1.7033,-1.7059,-1.7098,-1.7095,-1.7107,-1.711,-1.7112,-1.7112,-1.705,-1.7106,-1.7106,-1.7106,-1.7106,-1.7106,0,-1.6591,-1.6618,-1.6657,-1.6707,-1.6741,-1.6747,-1.6788,-1.6816,-1.6858,-1.6894,-1.6931,-1.6984,-1.7029,-1.7065,-1.711,-1.7134,-1.714,-1.7145,-1.7144,-1.7149,-1.7112,-1.7101,-1.714,-1.714,-1.714,-1.714,-1.714,-1.714,-1.662,-1.6669,-1.6687,-1.6751,-1.6777,-1.6825,-1.6847,-1.6878,-1.6907,-1.6966,-1.7002,-1.7025,-1.7062,-1.711,-1.7151,-1.7161,-1.7177,-1.7181,-1.7192,-1.7156,-1.7152,-1.7149,-1.7138,-1.7184,-1.7184,-1.7226,-1.7226,-1.7227]},{"header":{"parameterUnit":"m.s-1","parameterCategory":1,"la1":30.2991,"la2":30.254,"lo1":-89.0895,"lo2":-89.0444,"dy":0.0017,"dx":0.0017,"nx":28,"ny":28,"refTime":"2025-06-11T09:00:00:Z","depth":0,"parameterNumber":3,"parameterNumberName":"V-component_of_WINDS"},"data":[0,0,0,0,0,0,0,0,0,0,0,0,0,0,0,0,0,0,0,0,0,0,0,0,0,0,0,0,0,0,0,0,0,0,0,0,0,0,0,0,0,0,0,0,0,0,0,0,0,0,0,0,0,0,0,0,0,0,5.765,5.7651,0,5.7677,5.7677,5.7677,5.759,5.7587,5.7585,5.7582,5.7608,5.7611,5.7614,0,0,0,0,0,0,0,0,0,0,0,0,0,5.7521,5.7524,5.765,5.7651,5.7651,5.7677,5.7677,5.7677,5.759,5.7587,5.7584,5.7581,5.7607,5.761,5.7614,0,0,0,0,0,0,0,0,0,0,0,0,0,5.7566,5.7525,5.765,5.7611,5.7608,5.7677,5.7677,5.7678,5.7591,5.7587,5.7583,5.758,5.7605,5.761,5.7615,5.7723,0,0,5.7629,5.7631,0,0,0,0,0,0,0,0,5.7563,5.757,5.7616,5.7614,5.761,5.7626,5.7641,5.7693,5.7592,5.7597,5.7582,5.7578,5.7617,5.762,5.7634,5.7724,5.7725,5.7629,5.7632,5.7634,5.7636,0,0,0,0,0,0,0,5.756,5.7569,5.7661,5.7617,5.7613,5.7591,5.7593,5.765,5.7629,5.7597,5.759,5.7595,5.7614,5.763,5.7634,5.7725,5.7629,5.7633,5.7636,5.7638,5.7902,5.7906,0,0,0,0,0,0,5.7563,5.7567,5.766,5.7662,5.7577,5.7596,5.7598,5.7625,5.7628,5.7625,5.7598,5.7591,5.7624,5.7629,5.7635,5.7758,5.7634,5.7639,5.7641,5.7898,5.7903,5.7907,0,0,0,0,0,0,5.756,5.7572,5.7659,5.7613,5.7622,5.7603,5.7633,5.7628,5.7643,5.7629,5.7625,5.7618,5.7621,5.7628,5.7701,5.7758,5.7641,5.7645,5.7893,5.7899,5.7905,5.8009,0,0,0,0,0,0,5.7557,5.7572,5.7613,5.7614,5.7625,5.7726,5.7637,5.7631,5.7651,5.7642,5.7646,5.7643,5.7618,5.7694,5.7705,5.7762,5.7649,5.7887,5.7896,5.7903,5.8,5.8018,5.8033,0,0,0,0,0,5.7553,5.7642,5.7616,5.7628,5.7677,5.7729,5.7735,5.7705,5.7656,5.7697,5.7688,5.7643,5.7751,5.7702,5.7714,5.7774,5.7884,5.7893,5.7902,5.7993,5.8015,5.8033,0,0,0,0,0,0,5.7648,5.7641,5.7612,5.7705,5.7718,5.7715,5.7765,5.7729,5.7757,5.7746,5.7707,5.7709,5.7788,5.7788,5.7735,5.7877,5.7809,5.7821,5.7873,5.7894,5.791,5.7907,5.7653,0,0,0,0,0,5.768,5.7725,5.7716,5.7798,5.7806,5.7785,5.7807,5.7782,5.7794,5.78,5.7796,5.7809,5.7845,5.787,5.7903,5.8001,5.7999,5.8047,5.8064,5.8077,5.8088,5.8136,5.8157,5.7938,5.7938,5.7938,0,0,5.7747,5.7748,5.7779,5.7817,5.7825,5.787,5.779,5.7842,5.7875,5.7807,5.7875,5.7873,5.7885,5.797,5.8007,5.7973,5.8148,5.8089,5.81,5.8103,5.8148,5.8169,5.8187,5.7944,5.7943,5.7942,0,0,5.7889,5.7897,5.7964,5.7973,5.7986,5.797,5.7987,5.7989,5.7984,5.8052,5.8001,5.8039,5.8104,5.8113,5.8126,5.8272,5.823,5.8284,5.8369,5.8417,5.8434,5.8449,5.8498,5.8516,5.8294,5.8295,5.8295,0,5.797,5.8037,5.8004,5.8058,5.8075,5.8017,5.8084,5.8094,5.8117,5.8129,5.8091,5.8168,5.8172,5.8257,5.8292,5.8306,5.8322,5.8282,5.8434,5.8449,5.8462,5.8508,5.8527,5.8301,5.83,5.8299,5.8299,0,5.8133,5.818,5.8233,5.8256,5.8279,5.834,5.8315,5.8343,5.8316,5.8305,5.8373,5.8376,5.8407,5.8426,5.8401,5.8507,5.8484,5.8441,5.8371,5.849,5.8532,5.855,5.831,5.8307,5.8306,5.8304,0,0,5.8337,5.8339,5.8359,5.8367,5.8376,5.8411,5.8468,5.8499,5.8522,5.854,5.8585,5.864,5.8599,5.8614,5.8589,5.8632,5.8743,5.8583,5.8582,5.861,5.8857,5.8887,5.8909,5.8717,5.872,5.8723,5.8855,0,5.8475,5.8572,5.8544,5.8641,5.8683,5.8627,5.8676,5.8686,5.8677,5.871,5.87,5.8738,5.8683,5.8691,5.8731,5.8721,5.8792,5.8712,5.8756,5.8758,5.8752,5.8931,5.8964,5.9089,5.8872,5.8874,5.8876,0,5.8649,5.8672,5.8774,5.8773,5.8789,5.8835,5.8858,5.8892,5.8901,5.8891,5.8908,5.8874,5.8928,5.886,5.8933,5.8879,5.8896,5.8894,5.8898,5.8899,5.8823,5.8934,5.9128,5.9146,5.8903,5.8901,5.8899,0,5.8783,5.884,5.8907,5.8917,5.8919,5.8951,5.8953,5.8959,5.8978,5.8999,5.9011,5.9039,5.9054,5.9075,5.9049,5.9002,5.9125,5.9055,5.9116,5.9117,5.9143,5.9141,5.9339,5.9159,5.9159,5.9158,5.9158,0,5.8938,5.9002,5.8967,5.9008,5.9077,5.9043,5.9112,5.9108,5.9113,5.9152,5.9106,5.9143,5.9107,5.9141,5.9121,5.9183,5.9191,5.9183,5.9176,5.9185,5.9186,5.9193,5.9183,5.9163,5.9162,5.9161,5.916,0,5.9099,5.9079,5.9148,5.9144,5.9144,5.9195,5.919,5.9227,5.9215,5.9264,5.9273,5.9253,5.929,5.9267,5.9304,5.929,5.937,5.9354,5.9367,5.9361,5.9423,5.9416,5.9631,5.9656,5.9462,5.9464,5.9465,0,5.9198,5.9246,5.9246,5.9268,5.9273,5.931,5.9329,5.9297,5.9319,5.9332,5.9368,5.94,5.9424,5.9485,5.9474,5.9501,5.9483,5.9556,5.9486,5.9493,5.948,5.9477,5.948,5.9569,5.9572,5.9573,5.9575,0,5.9376,5.9362,5.9392,5.9418,5.9441,5.946,5.9475,5.9496,5.9464,5.949,5.9527,5.9545,5.9583,5.9615,5.9638,5.9639,5.9601,5.9597,5.9612,5.9621,5.9625,5.962,5.9402,5.9592,5.959,5.9589,5.9588,5.9587,5.9506,5.9545,5.955,5.9584,5.9591,5.9606,5.964,5.9631,5.9661,5.9688,5.9668,5.9711,5.9717,5.9744,5.975,5.9782,5.9752,5.9775,5.978,5.9785,5.9792,5.9623,5.9787,5.9786,5.9786,5.9785,5.9785,0,5.9678,5.9679,5.971,5.9732,5.9758,5.9721,5.9735,5.9758,5.9797,5.9806,5.983,5.9871,5.9902,5.9893,5.992,5.9947,5.993,5.9955,5.9951,5.9952,5.9819,5.9802,5.9968,5.9968,5.9968,5.9968,5.9968,5.9968,5.9771,5.9832,5.982,5.9885,5.9885,5.9926,5.9937,5.9949,5.9956,6.0004,6.0029,6.0022,6.0024,6.005,6.0076,6.0072,6.0083,6.0114,6.0104,5.998,5.9961,5.9944,5.9927,6.0117,6.0118,6.0233,6.0234,6.0235]}]]